User: anonymous   Login
Location: Mactaquac Provincial Park
(45.9573°N, 66.8897°W)
Time: 23:31:11
(UTC-03:00)
Language:

Cosmos 1766 - Orbit

View from above orbital plane
View from above orbital plane
View from above satellite
View from above satellite

Ground track
Ground track

The orbit data is extracted from the following two-line orbital elements,

1 16881U 86055A   16206.52199259  .00001317  00000-0  79774-4 0  9995
2 16881  82.5133 344.0566 0017626 146.4976 213.7372 15.09635553631990
Epoch (UTC): 24 July 2016 12:31:40
Eccentricity: 0.0017626
inclination: 82.5133°
perigee height: 525 km
apogee height: 549 km
right ascension of ascending node: 344.0566°
argument of perigee: 146.4976°
revolutions per day: 15.09635553
mean anomaly at epoch: 213.7372°
orbit number at epoch: 63199

The dashed part of the orbit path shows where the satellite is in the earth's shadow,  

DLR